GW5498 Weather Reports


time (UTC)temp
C
wind
direction
speed
KPH
gust
KPH
rain 1hr
cm
rain 24hr
cm
rain mn
cm
humidity
%
barometer
mb
20260506013928 6 35 3.2 8.0 0.00 0.00 0.00 84 1014.5
20260506013417 6 326 3.2 8.0 0.00 0.00 0.00 84 1014.6
20260506012917 6 328 3.2 12.9 0.00 0.00 0.00 84 1014.6
20260506012416 6 353 3.2 12.9 0.00 0.00 0.00 84 1014.6
20260506011914 6 314 3.2 9.7 0.00 0.00 0.00 84 1014.7
20260506011404 6 318 4.8 11.3 0.00 0.00 0.00 84 1014.7
20260506010906 6 347 4.8 11.3 0.00 0.00 0.00 84 1014.7
20260506010405 6 339 3.2 9.7 0.00 0.00 0.00 83 1014.7
20260506005905 6 0 3.2 9.7 0.00 0.00 0.00 83 1014.7
20260506005400 6 334 3.2 9.7 0.00 0.00 0.00 83 1014.7
20260506004859 6 348 4.8 14.5 0.00 0.00 0.00 83 1014.7
20260506004354 6 328 4.8 14.5 0.00 0.00 0.00 83 1014.8
20260506003848 6 357 3.2 11.3 0.00 0.00 0.00 82 1014.8
20260506003345 6 17 3.2 6.4 0.00 0.00 0.00 82 1014.9
20260506002844 6 339 3.2 17.7 0.00 0.00 0.00 82 1014.9
20260506002555 6 35 4.8 17.7 0.00 0.00 0.00 82 1014.9
20260506001831 6 332 3.2 12.9 0.00 0.00 0.00 81 1015.0
20260506000828 6 9 4.8 11.3 0.00 0.00 0.00 81 1014.9
20260505235829 7 344 4.8 8.0 0.00 0.00 0.00 80 1014.9
20260505234829 7 298 4.8 9.7 0.00 0.00 0.00 80 1015.0
20260505233833 7 358 3.2 8.0 0.00 0.00 0.00 79 1015.0
20260505233330 7 24 3.2 8.0 0.00 0.00 0.00 79 1015.0
20260505232830 7 352 3.2 9.7 0.00 0.00 0.00 78 1015.0
20260505232325 7 342 3.2 9.7 0.00 0.00 0.00 78 1015.1
20260505231824 7 359 4.8 11.3 0.00 0.00 0.00 78 1015.1
20260505231324 7 352 4.8 11.3 0.00 0.00 0.00 77 1015.1
20260505230826 7 343 3.2 14.5 0.00 0.00 0.00 77 1015.2
20260505230325 7 2 3.2 14.5 0.00 0.00 0.00 77 1015.2
20260505225825 7 15 3.2 12.9 0.00 0.00 0.00 77 1015.2
20260505225324 7 27 3.2 9.7 0.00 0.00 0.00 77 1015.2
20260505224823 7 332 3.2 9.7 0.00 0.00 0.00 77 1015.1
20260505224322 7 354 3.2 9.7 0.00 0.00 0.00 77 1015.2
20260505224044 7 345 4.8 11.3 0.00 0.00 0.00 77 1015.2
20260505223544 7 57 4.8 14.5 0.00 0.00 0.00 76 1015.2
20260505223043 7 314 4.8 14.5 0.00 0.00 0.00 76 1015.1
20260505222317 7 106 4.8 11.3 0.00 0.00 0.00 76 1015.2
20260505221818 7 62 4.8 11.3 0.00 0.00 0.00 76 1015.2
20260505221317 7 0 6.4 12.9 0.00 0.00 0.00 76 1015.1
20260505220817 7 67 6.4 12.9 0.00 0.00 0.00 76 1015.1
20260505220317 7 47 4.8 12.9 0.00 0.00 0.00 76 1015.2
20260505215814 7 350 4.8 12.9 0.00 0.00 0.00 76 1015.2
20260505215312 7 6 4.8 14.5 0.00 0.00 0.00 77 1015.3
20260505214812 8 59 4.8 14.5 0.00 0.00 0.00 77 1015.3
20260505214311 8 57 3.2 11.3 0.00 0.00 0.00 78 1015.3
20260505213808 8 14 3.2 9.7 0.00 0.00 0.00 78 1015.3
20260505213308 8 14 3.2 11.3 0.00 0.00 0.00 78 1015.3
20260505212807 8 347 4.8 11.3 0.00 0.00 0.00 78 1015.3
20260505212308 8 96 4.8 12.9 0.00 0.00 0.00 78 1015.3
20260505211808 8 21 4.8 12.9 0.00 0.00 0.00 79 1015.3
20260505211308 8 120 4.8 12.9 0.00 0.00 0.00 79 1015.3
20260505210809 8 44 4.8 12.9 0.00 0.00 0.00 79 1015.2
20260505210308 8 128 3.2 12.9 0.00 0.00 0.00 79 1015.2
20260505205808 8 327 3.2 14.5 0.00 0.00 0.00 79 1015.2
20260505204807 8 7 4.8 14.5 0.00 0.00 0.00 79 1015.1
20260505203802 8 1 4.8 14.5 0.00 0.00 0.00 79 1015.1
20260505202802 8 355 4.8 16.1 0.00 0.00 0.00 78 1015.0
20260505201803 8 4 4.8 12.9 0.00 0.00 0.00 78 1014.9
20260505201304 8 24 4.8 11.3 0.00 0.00 0.00 78 1014.9
20260505200803 9 28 4.8 12.9 0.00 0.00 0.00 78 1014.8
20260505200306 9 26 4.8 14.5 0.00 0.00 0.00 78 1014.8
20260505195804 9 102 4.8 14.5 0.00 0.00 0.00 78 1014.7
20260505195304 9 39 4.8 12.9 0.00 0.00 0.00 78 1014.6
20260505194802 9 27 3.2 9.7 0.00 0.00 0.00 78 1014.6
20260505194301 9 30 3.2 9.7 0.00 0.00 0.00 78 1014.5
20260505193802 9 90 3.2 9.7 0.00 0.00 0.00 78 1014.5
20260505193258 10 70 3.2 8.0 0.00 0.00 0.00 78 1014.5
20260505192757 10 49 3.2 11.3 0.00 0.00 0.00 78 1014.4
20260505192258 10 0 4.8 11.3 0.00 0.00 0.00 78 1014.3
20260505191757 10 0 3.2 9.7 0.00 0.00 0.00 78 1014.2
20260505191258 10 355 3.2 9.7 0.00 0.00 0.00 78 1014.3
20260505190758 10 0 3.2 12.9 0.00 0.00 0.00 78 1014.3
20260505190258 10 346 4.8 12.9 0.00 0.00 0.00 78 1014.2
20260505185756 10 342 4.8 12.9 0.00 0.00 0.00 78 1014.2
20260505184257 10 344 4.8 11.3 0.00 0.00 0.00 78 1014.0
20260505183257 10 328 3.2 9.7 0.00 0.00 0.00 78 1014.0
20260505182257 10 359 4.8 12.9 0.00 0.00 0.00 78 1013.9
20260505181257 10 348 6.4 17.7 0.00 0.00 0.00 77 1013.9
20260505180758 10 33 4.8 11.3 0.00 0.00 0.00 77 1013.9
20260505180253 10 1 4.8 12.9 0.00 0.00 0.00 77 1013.9
20260505175753 10 0 4.8 12.9 0.00 0.00 0.00 77 1013.9
20260505175252 11 246 4.8 12.9 0.00 0.00 0.00 77 1013.9
20260505174754 11 1 4.8 14.5 0.00 0.00 0.00 76 1013.8
20260505174252 11 49 6.4 14.5 0.00 0.00 0.00 76 1013.8
20260505173752 11 307 4.8 12.9 0.00 0.00 0.00 75 1013.6
20260505173252 11 349 4.8 12.9 0.00 0.00 0.00 75 1013.8
20260505172751 11 0 4.8 16.1 0.00 0.00 0.00 75 1013.6
20260505171752 11 0 6.4 14.5 0.00 0.00 0.00 74 1013.8
20260505171252 11 70 6.4 14.5 0.00 0.00 0.00 74 1013.8
20260505170752 11 347 6.4 14.5 0.00 0.00 0.00 74 1013.8
20260505170253 12 16 6.4 14.5 0.00 0.00 0.00 73 1013.8
20260505165749 12 30 6.4 14.5 0.00 0.00 0.00 72 1013.8
20260505165515 12 347 4.8 12.9 0.00 0.00 0.00 69 1013.5
20260505164247 13 312 3.2 12.9 0.00 0.00 0.00 61 1013.4
20260505162747 13 0 3.2 11.3 0.00 0.00 0.00 60 1013.4
20260505161748 13 320 3.2 14.5 0.00 0.00 0.00 58 1013.4
20260505160743 13 355 4.8 9.7 0.00 0.00 0.00 58 1013.4
20260505160242 13 355 4.8 14.5 0.00 0.00 0.00 59 1013.4
20260505153242 13 358 4.8 11.3 0.00 0.00 0.00 60 1013.4
20260505152743 13 347 4.8 14.5 0.00 0.00 0.00 60 1013.4
20260505152242 13 323 4.8 14.5 0.00 0.00 0.00 60 1013.3
20260505151742 13 336 4.8 14.5 0.00 0.00 0.00 60 1013.4
20260505151245 13 27 4.8 14.5 0.00 0.00 0.00 60 1013.4
20260505150743 13 349 3.2 11.3 0.00 0.00 0.00 60 1013.4
20260505150239 13 32 3.2 9.7 0.00 0.00 0.00 61 1013.4
20260505140238 14 283 4.8 16.1 0.00 0.00 0.00 57 1013.4
20260505130234 13 320 3.2 12.9 0.00 0.00 0.00 56 1013.4
20260505124735 13 327 3.2 9.7 0.00 0.00 0.00 57 1013.4
20260505124236 13 305 4.8 9.7 0.00 0.00 0.00 57 1013.5
20260505123735 13 328 4.8 11.3 0.00 0.00 0.00 57 1013.5
20260505123235 13 2 3.2 11.3 0.00 0.00 0.00 56 1013.5
20260505122734 13 338 3.2 9.7 0.00 0.00 0.00 57 1013.5
20260505122233 13 0 3.2 9.7 0.00 0.00 0.00 57 1013.5
20260505121734 13 1 3.2 9.7 0.00 0.00 0.00 59 1013.5
20260505121233 13 0 3.2 9.7 0.00 0.00 0.00 58 1013.5
20260505120730 13 312 3.2 9.7 0.00 0.00 0.00 59 1013.5
20260505120229 13 349 3.2 8.0 0.00 0.00 0.00 59 1013.5
20260505115728 13 357 3.2 8.0 0.00 0.00 0.00 59 1013.5
20260505115227 13 28 3.2 8.0 0.00 0.00 0.00 59 1013.5
20260505114728 13 38 3.2 8.0 0.00 0.00 0.00 59 1013.5
20260505114228 13 311 1.6 8.0 0.00 0.00 0.00 59 1013.6
20260505113728 13 295 1.6 9.7 0.00 0.00 0.00 59 1013.6
20260505113228 13 293 1.6 9.7 0.00 0.00 0.00 60 1013.8
20260505112729 13 321 3.2 9.7 0.00 0.00 0.00 60 1013.8
20260505112225 13 9 3.2 9.7 0.00 0.00 0.00 61 1013.8
20260505111724 13 5 3.2 9.7 0.00 0.00 0.00 61 1013.8
20260505111225 13 349 3.2 11.3 0.00 0.00 0.00 60 1013.8
20260505110723 13 92 1.6 11.3 0.00 0.00 0.00 60 1013.8
20260505110223 13 123 3.2 9.7 0.00 0.00 0.00 58 1013.8
20260505101719 12 353 4.8 11.3 0.00 0.00 0.00 62 1014.0
20260505100219 12 0 4.8 16.1 0.00 0.00 0.00 63 1014.1
20260505095718 12 340 4.8 16.1 0.00 0.00 0.00 65 1014.1
20260505095218 12 4 6.4 14.5 0.00 0.00 0.00 65 1014.1
20260505094219 12 241 4.8 14.5 0.00 0.00 0.00 65 1014.1
20260505093719 12 322 4.8 12.9 0.00 0.00 0.00 65 1014.1
20260505093218 12 353 4.8 11.3 0.00 0.00 0.00 66 1014.1
20260505092715 12 36 4.8 11.3 0.00 0.00 0.00 68 1014.0
20260505092438 12 26 4.8 16.1 0.00 0.00 0.00 68 1014.0
20260505091438 11 344 4.8 14.5 0.00 0.00 0.00 69 1014.0
20260505090212 11 0 4.8 16.1 0.00 0.00 0.00 72 1013.9
20260505085441 11 305 4.8 12.9 0.00 0.00 0.00 72 1013.9
20260505084714 11 331 6.4 12.9 0.00 0.00 0.00 73 1014.0
20260505083714 11 333 4.8 11.3 0.00 0.00 0.00 73 1013.9
20260505083213 11 326 3.2 11.3 0.00 0.00 0.00 74 1013.9
20260505082713 11 0 3.2 11.3 0.00 0.00 0.00 75 1014.0
20260505082214 11 0 3.2 11.3 0.00 0.00 0.00 76 1014.0
20260505081715 10 358 4.8 11.3 0.00 0.00 0.00 76 1014.0
20260505081210 10 9 3.2 11.3 0.00 0.00 0.00 76 1014.0
20260505080709 10 350 3.2 9.7 0.00 0.00 0.00 76 1014.0
20260505080209 10 6 3.2 9.7 0.00 0.00 0.00 77 1014.0
20260505075709 10 18 3.2 8.0 0.00 0.00 0.00 77 1013.9
20260505075209 10 8 3.2 8.0 0.00 0.00 0.00 77 1013.8
20260505074710 10 340 4.8 11.3 0.00 0.00 0.00 77 1013.8
20260505074209 10 343 3.2 11.3 0.00 0.00 0.00 77 1013.8
20260505073708 10 308 3.2 8.0 0.00 0.00 0.00 77 1013.6
20260505073208 10 24 3.2 8.0 0.00 0.00 0.00 77 1013.6
20260505072704 10 316 3.2 9.7 0.00 0.00 0.00 78 1013.6
20260505072203 10 1 3.2 9.7 0.00 0.00 0.00 78 1013.5
20260505071703 10 7 3.2 8.0 0.00 0.00 0.00 79 1013.5
20260505071203 10 334 3.2 8.0 0.00 0.00 0.00 80 1013.5
20260505070703 10 0 1.6 8.0 0.00 0.00 0.00 82 1013.6
20260505070203 10 13 1.6 8.0 0.00 0.00 0.00 84 1013.6
20260505065703 9 7 3.2 8.0 0.00 0.00 0.00 86 1013.8
20260505065203 8 305 3.2 8.0 0.00 0.00 0.00 88 1013.9
20260505064703 8 2 3.2 8.0 0.00 0.00 0.00 91 1013.9
20260505064203 8 324 3.2 11.3 0.00 0.00 0.00 92 1013.9
20260505063704 8 35 3.2 11.3 0.00 0.00 0.00 94 1013.8
20260505063203 7 61 1.6 4.8 0.00 0.00 0.00 95 1013.8
20260505062704 7 0 0.0 3.2 0.00 0.00 0.00 95 1013.9
20260505062203 6 0 0.0 1.6 0.00 0.00 0.00 96 1013.9
20260505061704 6 0 0.0 0.0 0.00 0.00 0.00 96 1013.9
20260505061203 6 0 0.0 3.2 0.00 0.00 0.00 96 1013.9
20260505060652 6 0 1.6 3.2 0.00 0.00 0.00 96 1013.9
20260505060151 5 335 1.6 4.8 0.00 0.00 0.00 96 1013.9
20260505055652 5 311 0.0 4.8 0.00 0.00 0.00 96 1013.9
20260505055152 5 0 0.0 3.2 0.00 0.00 0.00 96 1013.9
20260505054651 5 0 0.0 3.2 0.00 0.00 0.00 96 1013.9
20260505054152 5 308 0.0 3.2 0.00 0.00 0.00 96 1013.9
20260505053652 5 0 0.0 3.2 0.00 0.00 0.00 96 1013.9
20260505053135 5 310 0.0 3.2 0.00 0.00 0.00 96 1014.0
20260505052635 5 0 0.0 0.0 0.00 0.00 0.00 96 1014.0
20260505052134 5 0 0.0 0.0 0.00 0.00 0.00 96 1013.9
20260505051639 5 0 0.0 0.0 0.00 0.00 0.00 96 1013.9
20260505051135 4 0 0.0 0.0 0.00 0.00 0.00 96 1013.9
20260505050839 4 0 0.0 0.0 0.00 0.00 0.00 96 1013.8
20260505050325 4 0 0.0 0.0 0.00 0.00 0.00 96 1013.8
20260505041605 5 0 0.0 0.0 0.00 0.00 0.00 96 1013.6
20260505041050 5 0 0.0 0.0 0.00 0.00 0.00 96 1013.6
20260505040551 5 0 0.0 0.0 0.00 0.00 0.00 96 1013.5
20260505040051 5 0 0.0 0.0 0.00 0.00 0.00 96 1013.6
20260505035551 5 0 0.0 0.0 0.00 0.00 0.00 96 1013.5
20260505035051 5 0 0.0 0.0 0.00 0.00 0.00 96 1013.5
20260505034551 5 0 0.0 0.0 0.00 0.00 0.00 96 1013.4
20260505034051 5 0 0.0 0.0 0.00 0.00 0.00 96 1013.4
20260505033552 5 0 0.0 0.0 0.00 0.00 0.00 96 1013.4
20260505033050 6 0 0.0 0.0 0.00 0.00 0.00 96 1013.4
20260505032550 6 0 0.0 0.0 0.00 0.00 0.00 96 1013.4
20260505032050 6 0 0.0 0.0 0.00 0.00 0.00 96 1013.4
20260505031550 6 0 0.0 0.0 0.00 0.00 0.00 96 1013.5
20260505031037 6 0 0.0 0.0 0.00 0.00 0.00 95 1013.5
20260505030537 6 0 0.0 0.0 0.00 0.00 0.00 95 1013.5
20260505030038 6 0 0.0 0.0 0.00 0.00 0.00 95 1013.5
20260505025537 6 0 0.0 0.0 0.00 0.00 0.00 95 1013.5
20260505025037 6 0 0.0 0.0 0.00 0.00 0.00 95 1013.6
20260505024542 6 0 0.0 0.0 0.00 0.00 0.00 95 1013.6
20260505024041 6 0 0.0 0.0 0.00 0.00 0.00 95 1013.8
20260505023541 6 0 0.0 0.0 0.00 0.00 0.00 95 1013.8
20260505023041 6 0 0.0 0.0 0.00 0.00 0.00 95 1013.8
20260505022541 6 0 0.0 0.0 0.00 0.00 0.00 95 1013.9
20260505022042 7 0 0.0 0.0 0.00 0.00 0.00 95 1013.9
20260505021524 7 0 0.0 0.0 0.00 0.00 0.00 95 1013.9
20260505021023 7 0 0.0 3.2 0.00 0.00 0.00 95 1013.9
20260505020523 7 0 0.0 3.2 0.00 0.00 0.00 95 1013.9
20260505020023 7 0 0.0 0.0 0.00 0.00 0.00 95 1014.0
20260505015523 7 0 0.0 0.0 0.00 0.00 0.00 95 1014.0
20260505015023 7 0 0.0 0.0 0.00 0.00 0.00 95 1014.0
20260505014523 7 0 0.0 0.0 0.00 0.00 0.00 94 1014.1